Location: Albuquerque Trailhead
(34.7934°N, 106.3736°W)
Time: 02:22:08
(UTC+00:00)

Cosmos 2360 Rocket - Pass Details

Date: 20 June 2021
Orbit: 835 x 843 km, 71.0° (Epoch: 27 July)

Event Time Altitude Azimuth Distance (km) Brightness Sun altitude
Rises 03:37:03 0° 199° (SSW) 3,380 5.1 -13.4°
Reaches altitude 10° 03:39:29 10° 199° (SSW) 2,447 4.4 -13.8°
Maximum altitude 03:45:07 90° 117° (ESE) 844 2.2 -14.6°
Drops below altitude 10° 03:50:46 10° 21° (NNE) 2,456 4.9 -15.5°
Sets 03:53:13 0° 22° (NNE) 3,393 5.7 -15.8°
